VA6NA Weather Reports


time (UTC)temp
F
wind
direction
speed
knots
gust
knots
rain 1hr
in
rain 24hr
in
rain mn
in
humidity
%
barometer
mb
20260504050022 50 0.0 0.0 0.00 0.00 0.00 50 1017.3
20260504045042 50 0.0 0.0 0.00 0.00 0.00 50 1017.3
20260504044024 50 0.0 0.0 0.00 0.00 0.00 50 1017.2
20260504043020 50 0.0 0.0 0.00 0.00 0.00 50 1017.1
20260504042015 50 0.0 0.0 0.00 0.00 0.00 49 1017.1
20260504041030 51 0.0 0.0 0.00 0.00 0.00 48 1016.9
20260504040031 51 0.0 0.0 0.00 0.00 0.00 47 1016.7
20260504035031 52 0.0 0.0 0.00 0.00 0.00 46 1016.5
20260504034033 52 0.0 0.0 0.00 0.00 0.00 45 1016.4
20260504033029 53 0.0 0.0 0.00 0.00 0.00 43 1016.2
20260504032043 53 0.0 0.0 0.00 0.00 0.00 43 1016.0
20260504031019 54 0.0 0.0 0.00 0.00 0.00 42 1015.8
20260504030110 54 0.0 0.0 0.00 0.00 0.00 42 1015.5
20260504025028 55 0.0 0.0 0.00 0.00 0.00 41 1015.5
20260504024030 55 0.0 0.0 0.00 0.00 0.00 40 1015.5
20260504023111 56 0.0 0.9 0.00 0.00 0.00 40 1015.5
20260504022031 56 0.0 0.0 0.00 0.00 0.00 43 1015.5
20260504021033 56 0.0 0.0 0.00 0.00 0.00 46 1015.3
20260504020028 56 0.0 0.0 0.00 0.00 0.00 46 1015.3
20260504015024 56 0.0 0.0 0.00 0.00 0.00 46 1015.3
20260504014026 56 0.0 0.0 0.00 0.00 0.00 46 1015.3
20260504013026 57 0.0 0.0 0.00 0.00 0.00 45 1015.2
20260504012047 57 0.0 0.0 0.00 0.00 0.00 44 1015.2
20260504011042 58 0.0 0.0 0.00 0.00 0.00 43 1015.0
20260504010018 58 0.0 0.0 0.00 0.00 0.00 42 1014.8
20260504005031 59 0.0 0.0 0.00 0.00 0.00 42 1014.5
20260504004032 59 0.0 0.0 0.00 0.00 0.00 42 1014.5
20260504003034 59 0.0 0.0 0.00 0.00 0.00 43 1014.5
20260504002016 59 0.0 0.0 0.00 0.00 0.00 45 1014.4
20260504001017 59 0.0 0.0 0.00 0.00 0.00 45 1014.4
20260504000038 59 0.0 0.0 0.00 0.00 0.00 46 1014.3
20260503235112 59 0.0 0.0 0.00 0.00 0.00 46 1014.1
20260503234016 59 0.0 0.0 0.00 0.00 0.00 46 1014.2
20260503233029 59 0.0 0.0 0.00 0.00 0.00 46 1014.2
20260503232029 59 0.0 0.0 0.00 0.00 0.00 45 1014.1
20260503231025 60 0.0 0.0 0.00 0.00 0.00 44 1014.0
20260503230020 60 0.0 0.0 0.00 0.00 0.00 43 1013.9
20260503225021 60 0.0 0.0 0.00 0.00 0.00 43 1013.9
20260503224042 61 0.0 0.0 0.00 0.00 0.00 43 1013.6
20260503223022 61 0.0 0.0 0.00 0.00 0.00 42 1013.4
20260503222024 61 0.0 0.0 0.00 0.00 0.00 40 1013.4
20260503221025 61 0.0 0.0 0.00 0.00 0.00 40 1013.4
20260503220025 61 0.0 0.0 0.00 0.00 0.00 41 1013.4
20260503215027 61 0.0 0.0 0.00 0.00 0.00 41 1013.2
20260503214023 61 0.0 0.0 0.00 0.00 0.00 41 1013.2
20260503213017 61 0.0 0.0 0.00 0.00 0.00 41 1013.3
20260503212038 62 0.0 0.0 0.00 0.00 0.00 41 1013.4
20260503211024 62 0.0 0.0 0.00 0.00 0.00 41 1013.4
20260503210040 61 0.0 0.0 0.00 0.00 0.00 41 1013.4
20260503205016 61 0.0 0.0 0.00 0.00 0.00 41 1013.4
20260503204023 62 0.0 0.0 0.00 0.00 0.00 41 1013.4
20260503203024 61 0.0 0.0 0.00 0.00 0.00 41 1013.4
20260503202025 61 0.0 0.0 0.00 0.00 0.00 41 1013.4
20260503201026 61 0.0 0.0 0.00 0.00 0.00 41 1013.4
20260503200026 62 0.0 0.0 0.00 0.00 0.00 41 1013.2
20260503195048 62 0.0 0.0 0.00 0.00 0.00 40 1013.2
20260503194024 63 0.0 0.0 0.00 0.00 0.00 40 1013.0
20260503193038 63 0.0 0.0 0.00 0.00 0.00 40 1013.0
20260503192019 63 0.0 0.0 0.00 0.00 0.00 39 1012.9
20260503191048 63 0.0 0.0 0.00 0.00 0.00 38 1013.0
20260503190021 64 0.0 0.0 0.00 0.00 0.00 40 1012.9
20260503185017 66 0.0 0.0 0.00 0.00 0.00 39 1012.9
20260503184024 65 0.0 0.0 0.00 0.00 0.00 38 1012.9
20260503183024 65 0.0 0.0 0.00 0.00 0.00 38 1012.9
20260503182026 66 0.0 0.0 0.00 0.00 0.00 39 1012.9
20260503181047 66 0.0 0.0 0.00 0.00 0.00 38 1012.9
20260503180027 66 0.0 0.0 0.00 0.00 0.00 39 1012.8
20260503175029 65 0.0 0.0 0.00 0.00 0.00 41 1013.0
20260503174025 65 0.0 0.0 0.00 0.00 0.00 41 1012.9
20260503173026 65 0.0 0.0 0.00 0.00 0.00 40 1012.8
20260503172027 66 0.0 0.0 0.00 0.00 0.00 40 1012.8
20260503171047 65 0.0 0.0 0.00 0.00 0.00 40 1012.8
20260503131019 56 0.0 0.0 0.00 0.00 0.00 53 1011.8
20260503081026 55 0.0 0.0 0.00 0.00 0.00 53 1012.7